Terminal Aerodrome Forecast
Issued by NWS

Home | Current Version | Previous Version | Text Only | Print | Product List | Glossary On
Versions: 1 2 3 4 5 6 7 8 9 10 11 12 13 14 15 16 17 18 19 20 21 22 23 24 25 26 27 28 29 30 31 32 33 34 35 36 37
000
FTUS41 KBOX 281635 AAB
TAFHYA
TAF AMD
KHYA 281635Z 2817/2912 22014G22KT P6SM FEW040 OVC070
      TEMPO 2817/2818 5SM SHRA BKN040
     FM290000 22016KT P6SM SCT250
     FM290200 23015G22KT 3SM BR SCT250
     FM290600 25012G20KT P6SM SCT050=

USA.gov is the U.S. government's official web portal to all federal, state and local government web resources and services.